This is the latest recevied weather packets stored in our database for station/object CE1RLP-34. If no packets are shown the sender has not sent any weather packets the latest 10 day(s).
| Time | Temp. | Humidity | Pressure | Rain* | Wind** | Luminosity | Snow |
|---|---|---|---|---|---|---|---|
| 1777764020 | 20° C | 5% | 1083.5 hPa | - | - | - | - |
| 1777763120 | 20.56° C | 5% | 1083.4 hPa | - | - | - | - |
| 1777762217 | 22.22° C | 4% | 1083.4 hPa | - | - | - | - |
| 1777761317 | 23.33° C | 4% | 1083.3 hPa | - | - | - | - |
| 1777760415 | 26.11° C | 3% | 1083.4 hPa | - | - | - | - |
| 1777759515 | 27.78° C | 3% | 1083.4 hPa | - | - | - | - |
| 1777758612 | 28.89° C | 3% | 1083.3 hPa | - | - | - | - |
| 1777757712 | 30° C | 3% | 1083.1 hPa | - | - | - | - |
| 1777756810 | 31.11° C | 2% | 1083 hPa | - | - | - | - |
| 1777755910 | 32.22° C | 2% | 1083.1 hPa | - | - | - | - |
| 1777755007 | 32.78° C | 2% | 1083.2 hPa | - | - | - | - |
| 1777754107 | 33.33° C | 2% | 1083.3 hPa | - | - | - | - |
| 1777753205 | 33.89° C | 2% | 1083.3 hPa | - | - | - | - |
| 1777752305 | 33.89° C | 2% | 1083.2 hPa | - | - | - | - |
| 1777751402 | 33.89° C | 2% | 1083.3 hPa | - | - | - | - |
| 1777749600 | 33.89° C | 2% | 1083.3 hPa | - | - | - | - |
| 1777748699 | 33.89° C | 2% | 1083.4 hPa | - | - | - | - |
| 1777747797 | 34.44° C | 2% | 1083.6 hPa | - | - | - | - |
| 1777746897 | 34.44° C | 2% | 1083.7 hPa | - | - | - | - |
| 1777745995 | 33.89° C | 2% | 1083.7 hPa | - | - | - | - |
| 1777744217 | 33.33° C | 2% | 1083.9 hPa | - | - | - | - |
| 1777743317 | 32.78° C | 2% | 1083.9 hPa | - | - | - | - |
| 1777742415 | 32.78° C | 2% | 1084 hPa | - | - | - | - |
| 1777741515 | 32.78° C | 2% | 1084.1 hPa | - | - | - | - |
| 1777740613 | 32.22° C | 2% | 1084.2 hPa | - | - | - | - |
* Rain since midnight (hover to see other rain measurements)
** Current wind speed in m/s (hover to see current wind gust speed)